Tracking 28790 objects as of 19-Apr-2024
HD Live streaming from Space Station
objects crossing your sky now

TELECOM 1A

Track TELECOM 1A now!
TELECOM 1A is classified as:


NORAD ID: 15159
Int'l Code: 1984-081B
Perigee: 36,174.1 km
Apogee: 36,480.8 km
Inclination: 13.6 °
Period: 1,463.5 minutes
Semi major axis: 42698 km
RCS: 10.2909 m2 (large)
Launch date: August 4, 1984
Source: France (FR)
Launch site: FRENCH GUIANA (FRGUI)
Your satellite tracking list
Your tracking list is empty




NASA's NSSDC Master Catalog

Two Line Element Set (TLE):
1 15159U 84081B   24108.95612828 -.00000216  00000-0  00000-0 0  9998
2 15159  13.6328 339.3706 0035912  37.5230 146.8916  0.98397561110833
Source of the keplerian elements: AFSPC